Terminal Aerodrome Forecast
Issued by NWS Paducah, KY

Home | Current Version | Previous Version | Text Only | Print | Product List | Glossary On
Versions: 1 2 3 4 5 6 7 8 9 10 11 12 13
000
FTUS43 KPAH 221100
TAFPAH
TAF
KPAH 221120Z 2212/2312 VRB03KT P6SM SKC
     FM221500 02007KT P6SM SCT035
     FM230000 VRB03KT P6SM SKC
     FM230900 00000KT 4SM BR SKC=

USA.gov is the U.S. government's official web portal to all federal, state and local government web resources and services.